TimeCST,TemperatureF,Dew PointF,Humidity,Sea Level PressureIn,VisibilityMPH,Wind Direction,Wind SpeedMPH,Gust SpeedMPH,PrecipitationIn,Events,Conditions,WindDirDegrees,DateUTC
12:15 AM,57.2,55.4,94,29.96,10.0,South,9.2,-,N/A,,Partly Cloudy,170,2013-01-28 06:15:00
12:35 AM,59.0,55.4,88,29.97,10.0,South,8.1,16.1,N/A,,Partly Cloudy,180,2013-01-28 06:35:00
12:55 AM,59.0,55.4,88,29.97,10.0,South,9.2,-,N/A,,Mostly Cloudy,180,2013-01-28 06:55:00
1:15 AM,59.0,55.4,88,29.97,10.0,South,10.4,16.1,N/A,,Overcast,190,2013-01-28 07:15:00
1:35 AM,60.8,55.4,82,29.97,10.0,South,8.1,-,N/A,,Overcast,190,2013-01-28 07:35:00
1:55 AM,60.8,55.4,82,29.97,10.0,South,9.2,-,N/A,,Overcast,190,2013-01-28 07:55:00
2:15 AM,60.8,55.4,82,29.97,10.0,South,8.1,17.3,N/A,,Overcast,190,2013-01-28 08:15:00
2:35 AM,60.8,55.4,82,29.97,10.0,SSW,9.2,-,N/A,,Overcast,200,2013-01-28 08:35:00
2:55 AM,62.6,57.2,82,29.97,10.0,SSW,10.4,18.4,N/A,,Overcast,200,2013-01-28 08:55:00
3:15 AM,62.6,57.2,82,29.97,10.0,SSW,10.4,16.1,N/A,,Overcast,200,2013-01-28 09:15:00
3:35 AM,62.6,57.2,82,29.97,10.0,SSW,11.5,21.9,N/A,,Mostly Cloudy,210,2013-01-28 09:35:00
3:55 AM,62.6,57.2,82,29.97,10.0,SSW,12.7,19.6,N/A,,Overcast,200,2013-01-28 09:55:00
4:15 AM,62.6,57.2,82,29.96,10.0,SSW,10.4,21.9,N/A,,Mostly Cloudy,200,2013-01-28 10:15:00
4:35 AM,62.6,57.2,82,29.96,10.0,SSW,12.7,18.4,N/A,,Mostly Cloudy,200,2013-01-28 10:35:00
4:55 AM,62.6,57.2,82,29.96,10.0,SSW,11.5,19.6,N/A,,Overcast,200,2013-01-28 10:55:00
5:15 AM,62.6,57.2,82,29.97,10.0,SSW,10.4,-,N/A,,Overcast,210,2013-01-28 11:15:00
5:35 AM,64.4,57.2,77,29.97,10.0,SSW,11.5,20.7,N/A,,Overcast,200,2013-01-28 11:35:00
6:52 AM,64.4,57.2,77,29.98,10.0,SSW,12.7,20.7,N/A,,Mostly Cloudy,200,2013-01-28 12:52:00
7:54 AM,64.4,57.2,77,30.00,10.0,SSW,13.8,-,N/A,,Mostly Cloudy,200,2013-01-28 13:54:00
8:53 AM,64.4,57.2,77,30.00,10.0,SSW,11.5,19.6,N/A,,Scattered Clouds,200,2013-01-28 14:53:00
9:51 AM,68.0,57.2,68,30.01,10.0,SSW,19.6,29.9,N/A,,Mostly Cloudy,200,2013-01-28 15:51:00
10:47 AM,69.8,57.2,64,30.01,10.0,SSW,20.7,33.4,N/A,,Mostly Cloudy,200,2013-01-28 16:47:00
11:46 AM,71.6,57.2,60,30.00,10.0,SSW,23.0,34.5,N/A,,Mostly Cloudy,200,2013-01-28 17:46:00
12:46 PM,71.6,57.2,60,29.97,10.0,SSW,20.7,33.4,N/A,,Mostly Cloudy,210,2013-01-28 18:46:00
1:45 PM,71.6,55.4,57,29.94,10.0,SSW,13.8,24.2,N/A,,Overcast,210,2013-01-28 19:45:00
2:45 PM,73.4,57.2,57,29.93,10.0,SW,10.4,24.2,N/A,,Overcast,230,2013-01-28 20:45:00
3:45 PM,71.6,55.4,57,29.93,10.0,SW,13.8,23.0,N/A,,Mostly Cloudy,220,2013-01-28 21:45:00
4:46 PM,69.8,57.2,64,29.92,10.0,South,9.2,-,N/A,,Mostly Cloudy,190,2013-01-28 22:46:00
5:45 PM,68.0,55.4,64,29.91,10.0,SSE,8.1,-,N/A,,Mostly Cloudy,160,2013-01-28 23:45:00
6:45 PM,64.4,57.2,77,29.92,10.0,SSE,10.4,-,N/A,,Scattered Clouds,160,2013-01-29 00:45:00
7:50 PM,64.4,57.2,77,29.92,10.0,South,9.2,-,N/A,,Scattered Clouds,170,2013-01-29 01:50:00
7:55 PM,64.4,57.2,77,29.92,10.0,South,8.1,-,N/A,,Mostly Cloudy,170,2013-01-29 01:55:00
8:15 PM,64.4,59.0,83,29.92,10.0,South,10.4,-,N/A,,Scattered Clouds,180,2013-01-29 02:15:00
8:35 PM,64.4,59.0,83,29.92,10.0,South,8.1,-,N/A,,Mostly Cloudy,170,2013-01-29 02:35:00
8:45 PM,64.4,59.0,83,29.92,10.0,South,9.2,-,N/A,,Overcast,170,2013-01-29 02:45:00
8:55 PM,66.2,59.0,78,29.92,10.0,South,10.4,-,N/A,,Overcast,180,2013-01-29 02:55:00
9:15 PM,66.2,59.0,78,29.91,10.0,South,11.5,18.4,N/A,,Mostly Cloudy,170,2013-01-29 03:15:00
9:35 PM,66.2,59.0,78,29.91,10.0,South,8.1,-,N/A,,Scattered Clouds,170,2013-01-29 03:35:00
9:55 PM,64.4,59.0,83,29.90,10.0,SSE,11.5,17.3,N/A,,Scattered Clouds,160,2013-01-29 03:55:00
10:15 PM,64.4,59.0,83,29.90,10.0,SSE,10.4,19.6,N/A,,Mostly Cloudy,160,2013-01-29 04:15:00
10:35 PM,64.4,59.0,83,29.88,10.0,SSE,12.7,18.4,N/A,,Mostly Cloudy,160,2013-01-29 04:35:00
10:55 PM,64.4,59.0,83,29.88,10.0,SSE,13.8,19.6,N/A,,Scattered Clouds,160,2013-01-29 04:55:00
11:15 PM,64.4,59.0,83,29.88,10.0,SSE,11.5,17.3,N/A,,Partly Cloudy,160,2013-01-29 05:15:00
11:35 PM,64.4,59.0,83,29.88,10.0,SSE,10.4,17.3,N/A,,Clear,160,2013-01-29 05:35:00
11:55 PM,64.4,59.0,83,29.88,10.0,SSE,10.4,-,N/A,,Mostly Cloudy,160,2013-01-29 05:55:00